Home   Weather   Vientiane   Past weeks

Flag for Laos Past Weather in Vientiane, Laos — Yesterday and Last 2 Weeks

Now
73 °F

Fog.


Feels Like: 77 °F
Forecast: 58 / 85 °F
Wind: 5 mph from Northeast

Location: Vientiane Airport

Current Time: Jan 23, 2017 at 9:53:37 pm

Latest Report: Jan 23, 2017 at 9:00 pm


Visibility: 2 mi

Pressure: 30.09 "Hg

Humidity: 57%

Dew Point: 57 °F

Location of VientianeLocation

Past Weather in Vientiane — Graph

°F

Vientiane Temperature Yesterday

Maximum temperature yesterday: 84 °F (at 1:00 pm)
Minimum temperature yesterday: 64 °F (at 6:00 am)
Average temperature yesterday: 76 °F

High & Low Weather Summary for the Past Weeks

 TemperatureHumidityPressure
High90 °F (Jan 15, 4:00 pm)100% (Jan 12, 7:30 am)30.21 "Hg (Jan 12, 7:30 am)
Low64 °F (Jan 15, 7:00 am)37% (Jan 22, 4:00 pm)29.74 "Hg (Jan 12, 3:00 pm)
Average78 °F69%29.94 "Hg
* Reported Jan 8 8:00 pm — Jan 23 8:00 pm, Vientiane, Weather by CustomWeather, © 2017

Note: Actual official high and low records may vary slightly from our data, if they occured in-between our weather recording intervals... More about our weather records

Advertising

Vientiane Weather History for the Previous 24 Hours

Scroll right to see more
 ConditionsComfort  
Time TempWeatherWind HumidityBarometerVisibility
8:00 pm
Mon, Jan 23
73 °FFog.2 mph69%30.07 "Hg2 mi
7:30 pm73 °FFog.2 mph65%29.98 "Hg3 mi
7:00 pm75 °FFog.2 mph61%30.04 "Hg3 mi
6:30 pm77 °FPassing clouds.5 mph54%30.01 "Hg4 mi
6:00 pm77 °FPassing clouds.5 mph54%30.01 "Hg4 mi
5:30 pm81 °FScattered clouds.5 mph39%30.04 "HgN/A
5:00 pm81 °FScattered clouds.5 mph39%30.04 "HgN/A
4:30 pm81 °FPartly sunny.5 mph39%30.04 "HgN/A
4:00 pm81 °FPartly sunny.5 mph39%30.04 "HgN/A
3:30 pm81 °FPartly sunny.7 mph39%30.04 "HgN/A
3:00 pm81 °FScattered clouds.7 mph37%30.07 "HgN/A
2:30 pm81 °FScattered clouds.9 mph39%30.07 "HgN/A
2:00 pm81 °FScattered clouds.7 mph37%30.07 "HgN/A
1:30 pm79 °FScattered clouds.9 mph39%30.09 "HgN/A
1:00 pm81 °FScattered clouds.2 mph48%30.12 "HgN/A
12:30 pm79 °FScattered clouds.7 mph39%30.12 "HgN/A
11:30 am75 °FScattered clouds.7 mph44%30.18 "Hg5 mi
11:00 am75 °FScattered clouds.12 mph47%30.18 "Hg5 mi
10:30 am73 °FScattered clouds.5 mph53%30.18 "Hg5 mi
10:00 am72 °FBroken clouds.7 mph57%30.21 "Hg4 mi
9:30 am70 °FBroken clouds.7 mph60%30.21 "Hg4 mi
9:00 am70 °FBroken clouds.5 mph60%30.18 "Hg4 mi
8:30 am66 °FPartly sunny.5 mph68%30.18 "Hg4 mi
8:00 am66 °FFog.5 mph68%30.18 "Hg3 mi
7:30 am64 °FFog.7 mph73%30.15 "Hg3 mi
7:00 am64 °FFog.5 mph73%30.12 "Hg3 mi
6:30 am64 °FFog.5 mph73%30.12 "Hg2 mi
6:00 am64 °FFog.5 mph73%30.12 "Hg2 mi
2:00 am64 °FFog.2 mph73%30.09 "Hg2 mi
1:00 am66 °FFog.7 mph68%30.12 "Hg2 mi
12:00 am68 °FFog.7 mph64%30.09 "Hg2 mi
11:30 pm
Sun, Jan 22
70 °FFog.12 mph60%30.12 "Hg2 mi
11:00 pm70 °FFog.12 mph60%30.09 "Hg2 mi
10:30 pm70 °FFog.12 mph60%30.09 "Hg2 mi
10:00 pm72 °FFog.9 mph57%30.09 "Hg2 mi
9:30 pm73 °FFog.9 mph53%30.09 "Hg2 mi
9:00 pm73 °FFog.9 mph53%30.07 "Hg2 mi
Weather by CustomWeather, © 2017

See weather overviewHow to use our weather pages